ISS (25544 NORAD) Tracking and Keplerian Element Data

This shows tracking and keplerian element data for the satellite.

Feedback or suggestion? Click here.




ElementValue
Catalog25544
NameISS
Epoch Orbit147
Epoch Day79.51472761
Epoch Year2019
RAAN82.0545
Inclination51.6378
Eccentricity0.0003767
Argument of Perigee122.8396
Mean Anonmoly237.3119
Mean Motion15.52807885
Decay Rate0.00016717
L11 25544U 98067A 19079.51472761 .00016717 00000-0 10270-3 0 9028
L22 25544 51.6378 82.0545 0003767 122.8396 237.3119 15.52807885 1477

Live tracking and technical data element details for ISS (NORAD 25544). ISS can be tracked NOW for your location showing map with azimuth and elevation plus other details from your city location.

Track the satellite on the map from your city or location and see movement details for azimuth, elevation, latitude, longitude, range, height, and movement on the map or in text.







IsCatalogInMostPopularTable: catalog: 25544, numindb: 14560
Update: records affected: 1



GetName: 25544 ISS

Hit Count: updated at: Thu, 21 Mar 2019 01:09:13 GMT